{"data":{"norad_id":63586,"intl_designator":"2025-076T","name":"STARLINK-33834","alt_names":[],"object_type":"PAYLOAD","status":"ACTIVE","operator":null,"country":"US","launch_date":"2025-04-14","launch_site_code":"AFETR","launch_vehicle":null,"mission":null,"orbit_class":"UNKNOWN","rcs_meters":null,"size_class":null,"mass_kg":null,"dimensions":null,"purposes":["comms"],"wikipedia_slug":null,"has_3d_model":false,"image_url":null,"decayed_at":null,"tle_current":{"epoch":"2026-09-20T10:24:51.805152Z","epoch_age_seconds":158298,"freshness":"FRESH","line1":"1 63586U 25076T   26263.43393293  .00013798  00000+0  50981-3 0  9996","line2":"2 63586  43.0058 301.9119 0002239 286.4418  73.6188 15.27590716 81615","mean_motion":15.27590716,"eccentricity":0.0002239,"inclination_deg":43.0058,"raan_deg":301.9119,"arg_perigee_deg":286.4418,"mean_anomaly_deg":73.6188,"bstar":0.00050981,"rev_number":8161,"period_min":94.266087435425,"perigee_km":481.48079628563,"apogee_km":484.55322105071,"semimajor_km":6861.1540086682,"source":"CELESTRAK","updated_at":"2026-09-21T09:00:35.048213Z"}}}